Notices

What's New in latest Release from April 7th, 2021:

- Updated Glossary, including Speed of Maximum Gust, and Total Hourly Precipitation

- Updated national and regional climate services offices contacts and prices information

- Addition of station inventory lists for 1981-2010, 1971-2000, and 1961-1990 Normals.

If you haven't already, please take our survey and provide feedback about our website: https://eccc.sondage-survey.ca/f/LanguageSelection.aspx?s=442ca660-fcf1-47c0-95a9-59707d6fd709

Hourly Data Report for April 21, 2018

KENORA A
ONTARIO
Current Station Operator: NAVCAN

49°47'18.000" N
94°21'47.000" W
409.70 m
6034076
71850
YQK

Download Data

Hourly Data (April 2018)
Hourly Data Report for April 21, 2018
TIME
LST
Temp Definition
°C
Dew Point Definition
°C
Rel Hum Definition
%
Precip. Amount Definition
mm

Wind Dir Definition
10's deg

Wind Spd Definition
km/h
Visibility Definition
km
Stn Press Definition
kPa
Hmdx Definition


Wind Chill Definition


Weather Definition


00:00 4.4 -2.4 61   24 9 24.1 97.88     Mostly Cloudy
01:00 5.7 -2.1 57   28 7 24.1 97.88     LegendNANA
02:00 5.7 -1.6 59   28 7 24.1 97.86     LegendNANA
03:00 4.2 -1.8 65   20 4 24.1 97.86     Mainly Clear
04:00 1.5 -2.8 73   17 7 24.1 97.88     LegendNANA
05:00 2.1 -2.5 71   21 7 24.1 97.89     LegendNANA
06:00 3.0 -2.2 69   18 7 32.2 97.90     Mainly Clear
07:00 4.3 -1.5 66   19 11 32.2 97.91     LegendNANA
08:00 7.0 0.5 63   22 9 32.2 97.90     LegendNANA
09:00 8.1 0.2 57   21 15 24.1 97.88     Mainly Clear
10:00 9.4 0.3 53   22 19 32.2 97.85     LegendNANA
11:00 10.3 -0.6 47   22 22 32.2 97.82     LegendNANA
12:00 12.1 -1.0 40   20 18 32.2 97.78     Mainly Clear
13:00 12.1 -2.2 37   19 19 32.2 97.73     LegendNANA
14:00 12.8 -2.6 34   19 26 32.2 97.68     LegendNANA
15:00 13.2 -2.5 33   19 18 32.2 97.65     Mainly Clear
16:00 13.5 -2.5 33   21 18 32.2 97.63     LegendNANA
17:00 13.6 -3.4 31   20 18 32.2 97.60     LegendNANA
18:00 13.0 -3.0 33   19 15 24.1 97.58     Mostly Cloudy
19:00 12.1 -3.2 34   19 12 24.1 97.55     LegendNANA
20:00 10.9 -3.5 36   18 9 24.1 97.56     LegendNANA
21:00 10.0 -3.5 38   19 12 24.1 97.58     Mainly Clear
22:00 9.7 -3.7 39   19 12 24.1 97.58     LegendNANA
23:00 8.8 -3.6 41   19 13 24.1 97.55     LegendNANA

Notes on Data Quality.

Legend

  • E = Estimated
  • M = Missing
  • NA = Not Available*
  • [empty] = Indicates an unobserved value
Date modified: